Regional Weather Roundup
Issued by NWS

Home | Current Version | Previous Version | Text Only | Print | Product List | Glossary Off
Versions: 1 2 3 4 5 6 7 8 9 10 11 12 13 14 15 16 17 18 19 20 21 22 23 24 25 26 27 28 29 30 31 32 33 34 35 36 37 38 39 40 41 42 43 44 45 46 47 48 49 50

000
ASUS43 KLSX 200557
RWRMO

WEATHER SUMMARY FOR MISSOURI
NATIONAL WEATHER SERVICE SPRINGFIELD MO
1200 AM CST TUE FEB 20 2018

NOTE: "FAIR" INDICATES FEW OR NO CLOUDS BELOW 12,000 FEET WITH NO
       SIGNIFICANT WEATHER AND/OR OBSTRUCTIONS TO VISIBILITY.
       CURRENT SKY AND/OR WEATHER CONDITIONS ARE NOT AVAILABLE FOR
       CHILLICOTHE AND FARMINGTON.

MOZ001>031-035>038-043-044-053-054-200700-
...NORTHERN AND WESTERN MISSOURI...

CITY           SKY/WX    TMP DP  RH WIND       PRES   REMARKS
KANSAS CTY INT FRZ RAIN  30  29  96 N8        29.79F FOG     WCI  22
6HR MIN TEMP:  29; 6HR MAX TEMP:  34; 6HR PCP:  0.02;

LEE`S SUMMIT   MIX PCPN  32  32 100 VRB5      29.81F FOG     WCI  27
6HR MIN TEMP:  32; 6HR MAX TEMP:  34; 6HR PCP:  0.05;

ST JOSEPH      CLOUDY    28  28 100 N7        29.83F FOG     WCI  21
6HR MIN TEMP:  28; 6HR MAX TEMP:  29;

CHILLICOTHE      N/A     34  32  92 N5        29.83F WCI  30
6HR MIN TEMP:  34; 6HR MAX TEMP:  37; 6HR PCP:  0.03;


$$
MOZ066>068-077>081-088>096-101>105-200700-
...SOUTHWEST MISSOURI...

CITY           SKY/WX    TMP DP  RH WIND       PRES   REMARKS
SPRINGFIELD    CLOUDY    65  57  75 S16       29.80F
6HR MIN TEMP:  64; 6HR MAX TEMP:  67; 6HR PCP: TRACE;

JOPLIN         TSTM      64  61  90 S18G29    29.78R FOG
6HR MIN TEMP:  52; 6HR MAX TEMP:  65; 6HR PCP:  0.36;


$$
MOZ032>034-039>042-045>050-055>058-069>072-200700-
...CENTRAL MISSOURI...

CITY           SKY/WX    TMP DP  RH WIND       PRES   REMARKS
COLUMBIA       NOT AVBL
JEFFERSON CITY LGT RAIN  67  58  72 S17G30    29.80S
6HR MIN TEMP:  63; 6HR MAX TEMP:  69; 6HR PCP:  0.27;

ROLLA          CLOUDY    65  58  78 S22G31    29.85F
6HR MIN TEMP:  64; 6HR MAX TEMP:  65; 6HR PCP: TRACE;

SEDALIA        CLOUDY    41  41 100 N5        29.82R
6HR MIN TEMP:  40; 6HR MAX TEMP:  48; 6HR PCP:  0.50;

WARRENSBURG      N/A     34  34 100 W10       29.82R WCI  26

$$
MOZ051-052-059>065-200700-
...EAST CENTRAL MISSOURI...

CITY           SKY/WX    TMP DP  RH WIND       PRES   REMARKS
ST LOUIS INTL  CLOUDY    67  60  78 S13G23    29.87F
6HR MIN TEMP:  65; 6HR MAX TEMP:  68; 6HR PCP: TRACE;


$$
MOZ072>076-082>087-097>100-106>115-200700-
...SOUTH CENTRAL AND SOUTHEAST MISSOURI...

CITY           SKY/WX    TMP DP  RH WIND       PRES   REMARKS
CAPE GIRARDEAU FAIR      66  57  72 S16       29.98S
6HR MIN TEMP:  63; 6HR MAX TEMP:  70;

POPLAR BLUFF   FAIR      64  56  75 S9        29.96S
6HR MIN TEMP:  64; 6HR MAX TEMP:  67;

WEST PLAINS    PTCLDY    66  57  72 S15G22    29.93R
6HR MIN TEMP:  65; 6HR MAX TEMP:  67;


$$



USA.gov is the U.S. government's official web portal to all federal, state and local government web resources and services.